Location: Tamazert
(32.6352°N, 5.2072°W)
Time: 15:43:17
(UTC+00:00)

Tiros 1 despin weight - Visible Passes

Search period start: 26 September 2022 00:00
Search period end: 06 October 2022 00:00
Orbit: 590 x 639 km, 48.2° (Epoch: 23 September)

Date Brightness Start Highest point End Pass type
(mag) Time Alt. Az. Time Alt. Az. Time Alt. Az.
26 Sep ? 20:09:06 10° NW 20:11:52 16° NNW 20:13:56 12° NNE visible
27 Sep ? 18:41:12 10° W 18:45:09 29° NNW 18:49:10 10° NNE visible
27 Sep ? 20:25:56 10° NNW 20:27:51 12° N 20:28:40 12° N visible
28 Sep ? 18:57:39 10° WNW 19:00:55 19° NNW 19:04:12 10° NNE visible
28 Sep ? 20:42:29 10° NNW 20:43:21 11° N 20:43:21 11° N visible
29 Sep ? 19:14:23 10° NW 19:16:48 14° NNW 19:19:14 10° NNE visible
30 Sep ? 19:31:12 10° NNW 19:32:48 12° N 19:34:24 10° NNE visible
01 Oct ? 19:47:28 10° NNW 19:48:50 11° N 19:50:12 10° NNE visible
02 Oct ? 20:02:52 10° NNW 20:04:48 12° N 20:04:48 12° N visible
03 Oct ? 18:36:23 10° NNW 18:37:43 11° N 18:39:04 10° NNE visible
03 Oct ? 20:17:55 10° NNW 20:19:24 14° N 20:19:24 14° N visible
04 Oct ? 18:52:19 10° NNW 18:53:45 11° N 18:55:12 10° NNE visible
04 Oct ? 20:32:55 10° NNW 20:34:00 15° NNW 20:34:00 15° NNW visible
05 Oct ? 19:07:29 10° NNW 19:09:44 13° NNE 19:11:40 11° NE visible
05 Oct ? 20:47:58 10° NW 20:48:38 14° NNW 20:48:38 14° NNW visible
